Dewpoint
65 63 64 65 64 63 63 61 60 59 60 59 58 58 58 58 57 56 57 60 60 60 59 59 58 57 56 56 56 55 54 54 54 53 53 53 53 53 53 52 52 50 50
65 64 63 64 64 63 61 60 58 58 58 58 58 57 57 56 56 58 56 56 59 59 60 58 58 57 56 56 56 55 54 54 54 54 54 53 53 53 52 51 51 50 49
63 63 63 63 63 63 60 58 57 57 56 57 57 56 56 57 56 57 57 56 56 58 58 59 59 57 56 56 55 55 54 54 54 54 54 53 53 53 53 51 51 51 49
63 63 63 62 62 61 59 56 56 55 55 56 55 55 54 55 57 57 56 56 55 54 57 59 59 59 58 56 56 56 55 54 54 54 54 54 53 53 54 53 51 51 51
63 63 62 62 60 59 58 57 55 55 55 55 54 54 54 54 56 55 56 57 57 55 54 58 58 58 59 58 56 56 56 55 55 55 55 55 54 54 54 54 53 52 52
63 62 62 61 59 58 57 56 55 54 55 54 52 53 55 55 55 56 56 55 56 56 56 56 56 55 58 59 57 56 56 56 56 56 56 55 55 56 55 55 55 54 54
62 63 62 60 59 57 57 58 55 55 54 55 54 53 54 55 56 55 56 55 55 56 56 56 55 54 54 59 59 58 57 57 57 57 58 57 58 58 58 58 57 57 56
61 62 61 59 58 57 56 55 55 54 54 55 52 52 51 52 54 54 55 55 56 54 54 56 55 56 55 54 55 59 58 58 58 58 60 60 60 60 59 59 59 59 59
61 60 60 59 57 55 54 56 55 54 52 54 55 51 50 49 51 53 54 54 55 55 54 55 55 55 56 55 55 56 56 57 58 58 59 60 60 61 61 60 60 60 60
59 59 59 58 56 54 53 55 54 54 54 53 54 51 53 52 49 49 51 54 54 54 55 54 54 55 55 54 55 54 52 53 55 57 58 59 60 60 60 60 60 61 60
59 58 58 57 54 53 54 54 55 55 54 54 53 51 51 50 52 49 48 50 52 53 54 54 55 54 55 55 55 54 52 51 51 54 56 57 58 59 60 60 60 60 60
60 59 57 56 55 53 53 53 54 55 56 55 54 52 50 48 48 47 47 50 50 51 53 54 55 54 55 55 54 52 51 50 50 52 54 55 55 56 56 57 57 57 57
61 59 58 57 56 55 54 53 54 55 56 55 56 53 52 50 51 51 51 50 49 51 51 51 51 53 53 54 54 52 51 49 49 50 51 52 52 53 53 53 54 54 55
60 61 60 59 57 56 53 54 55 55 56 57 56 56 55 54 54 52 51 52 50 50 51 51 52 51 52 53 51 50 46 45 45 46 47 47 47 47 47 47 48 48 49
61 61 60 59 59 56 56 55 56 56 56 57 56 56 55 56 56 56 55 54 52 49 49 52 52 53 54 50 51 46 44 43 42 42 41 42 43 43 43 44 43 43 44
60 60 61 60 59 57 56 55 55 56 55 56 56 55 56 56 56 56 55 55 54 52 50 53 53 50 49 45 45 44 42 40 39 38 38 38 38 38 38 37 36 37 38
59 59 60 60 59 58 57 56 55 55 53 54 54 54 55 56 55 55 55 55 54 54 52 53 53 46 43 41 41 40 40 39 38 33 33 35 36 34 33 32 31 31 33
60 59 59 59 59 59 58 56 55 55 54 54 54 55 55 55 55 55 55 54 55 55 53 52 47 40 39 38 37 35 34 37 36 32 28 31 32 29 27 26 25 24 24
58 58 58 58 58 59 58 57 56 55 55 54 54 54 54 55 54 54 55 54 54 51 51 50 39 38 34 35 33 33 32 34 31 29 25 23 28 26 25 22 20 21 23
57 57 57 57 58 58 58 57 57 56 56 55 55 54 54 54 54 52 49 48 45 44 43 40 36 33 33 32 30 27 27 29 29 22 21 19 26 24 22 18 16 20 22
56 56 56 56 56 56 57 56 54 47 44 41 40 39 39 40 38 39 42 41 41 39 37 34 31 29 27 25 24 23 23 24 26 21 18 15 21 17 15 12 11 19 23
56 55 54 53 51 49 42 43 45 43 40 37 35 34 34 34 33 33 31 31 33 34 31 28 25 23 23 23 21 19 18 18 18 20 15 14 19 12 9 6 15 19 21
49 47 45 45 42 42 40 40 39 38 36 34 33 32 32 31 30 28 28 28 27 26 26 25 23 20 17 18 18 16 15 13 12 16 15 13 10 10 6 3 13 17 18
44 42 39 38 37 37 38 37 36 34 33 33 32 31 31 29 29 27 25 24 23 23 22 21 20 19 16 14 14 14 14 15 13 13 11 13 7 5 6 5 12 16 16
38 36 36 35 34 34 35 35 33 32 31 30 30 30 29 28 28 27 23 22 21 21 22 21 20 19 19 18 16 16 13 12 11 3 11 10 7 4 4 5 4 10 13
34 33 33 33 33 33 34 34 32 31 29 28 28 29 28 27 25 24 22 20 18 15 13 13 15 15 14 15 16 13 12 11 7 8 7 8 4 4 7 4 4 4 5
Lifted_Index
-1 -1 -1 -1 -1 -1 -0 1 1 1 1 1 0 0 1 1 2 2 3 3 3 3 4 4 5 6 6 7 7 8 8 8 8 8 8 8 8 7 8 8 8 8 9
-1 -1 -0 -0 -1 -0 0 1 1 1 1 1 0 1 1 2 2 2 3 3 3 3 4 4 5 5 6 6 7 8 8 8 8 8 8 8 8 7 7 8 8 8 9
-1 -1 -0 0 0 0 1 2 2 2 1 1 1 1 2 3 3 3 3 3 3 4 4 4 5 5 6 6 7 8 8 8 8 8 8 7 7 7 7 8 8 8 9
-1 -1 0 1 1 1 2 2 2 2 2 2 1 2 3 3 3 3 3 3 4 4 5 5 5 5 6 6 7 7 7 7 7 7 7 7 7 6 6 7 7 8 8
-1 -0 0 1 1 1 2 2 2 2 2 3 3 3 4 4 4 4 4 4 4 4 5 5 5 6 6 6 6 7 7 7 7 7 7 6 6 5 5 6 6 7 7
-0 -0 1 1 1 1 2 3 3 3 3 4 4 4 4 4 4 4 4 4 4 4 5 5 6 6 6 6 6 6 6 6 6 6 6 5 5 4 4 4 5 5 6
0 0 1 1 1 1 2 3 3 3 4 5 5 5 5 5 4 4 4 4 4 5 5 5 5 6 6 6 6 6 6 6 5 5 5 4 4 3 3 3 3 4 4
1 1 1 1 1 1 2 3 3 4 5 5 5 5 4 4 4 4 4 4 5 5 5 5 5 6 6 6 6 6 6 5 5 4 4 3 2 2 2 2 2 2 3
1 1 1 1 1 1 2 3 4 4 5 5 5 4 4 4 4 4 4 5 5 5 5 5 5 5 5 6 6 6 6 5 5 4 4 3 2 1 1 1 1 1 1
1 1 2 1 1 2 2 3 4 5 5 5 4 4 4 4 4 4 4 5 5 5 5 5 5 5 5 6 6 6 6 5 5 5 4 3 2 1 1 0 0 0 1
1 1 1 1 1 2 2 3 5 5 4 4 4 4 4 4 4 4 4 4 5 5 5 5 4 5 5 6 6 6 5 5 5 5 4 3 2 2 1 1 1 1 1
1 1 1 1 2 2 2 3 4 5 4 4 4 4 4 4 4 5 5 5 5 5 5 4 5 5 5 6 5 5 5 5 4 4 4 3 2 2 2 1 1 2 2
1 1 1 1 2 2 2 3 4 5 5 4 4 4 4 4 5 5 5 5 5 5 5 4 4 5 5 5 5 5 4 4 4 3 3 2 2 2 2 2 2 2 2
1 1 0 1 1 2 2 2 3 4 4 4 4 4 4 4 5 5 5 5 5 5 4 4 4 4 4 4 4 4 4 3 3 3 2 2 2 2 1 2 2 2 2
0 0 0 0 1 2 2 2 2 3 4 5 5 5 5 4 4 5 5 5 5 5 4 4 4 4 4 3 3 3 3 3 2 2 2 2 2 2 2 2 3 3 3
0 0 -0 0 1 2 2 2 2 2 3 4 5 5 5 4 4 4 4 5 5 5 4 4 3 3 3 3 3 3 3 3 3 3 3 2 3 3 4 4 5 5 6
1 0 -0 0 1 1 1 1 1 2 2 3 5 5 5 4 4 4 4 4 4 4 4 3 3 3 3 3 2 3 4 4 4 4 5 5 6 6 7 8 9 10 10
1 1 0 0 1 1 1 1 1 2 2 2 4 4 5 5 4 4 4 4 4 4 4 4 3 3 3 3 3 3 5 6 7 7 8 9 10 11 12 14 15 16 16
1 1 1 1 2 2 2 1 1 2 2 2 3 4 4 5 4 4 3 3 4 4 4 3 3 3 3 3 3 4 6 7 9 11 13 14 15 17 18 19 20 21 21
2 1 1 1 2 2 2 2 2 2 2 2 2 3 4 4 4 3 3 3 3 3 3 3 3 3 3 3 4 5 6 8 11 14 17 19 20 21 22 23 23 24 24
2 2 2 2 2 2 2 2 2 2 2 2 2 2 3 3 3 3 3 3 3 3 3 3 2 2 3 4 5 6 7 9 12 17 20 21 22 23 23 24 25 25 25
2 3 3 2 2 2 2 2 2 2 2 2 2 2 2 3 3 3 3 3 3 4 4 3 3 3 5 7 9 10 11 12 14 19 21 21 23 23 24 25 26 26 27
3 3 3 3 3 3 3 2 2 2 2 2 2 2 3 3 3 3 3 4 4 5 6 7 7 8 10 13 15 17 17 17 19 22 22 22 23 24 25 26 26 27 28
3 3 3 3 3 3 3 3 2 2 2 3 3 3 3 4 5 5 5 5 6 9 12 13 14 16 18 20 21 21 21 21 22 24 24 23 24 25 26 27 27 27 28
3 3 4 4 4 4 3 3 3 3 3 3 4 5 6 6 8 9 8 8 9 13 17 19 20 21 23 24 24 24 23 22 22 24 25 25 25 25 26 27 28 28 28
4 4 4 4 4 4 4 4 3 3 3 4 5 6 8 9 11 12 11 10 11 14 19 22 22 23 24 26 26 25 24 22 22 23 25 25 25 25 25 27 28 28 29